When you browse on this site, cookies collect data to enhance your experience and personalize the content and advertising you see.
Visit our Privacy Policy to learn more. By continuing to use the site, you agree to this use of cookies and data.
  • In Hungary
  • List of Countries
  • For 7 days
  • Water Temperature
  • Weather Map
  • News
  • Weather Widgets
  • user-avatar
    Login

    Hourly Weather Chashkan

    Today, 29 May, Friday

    Time Temperature Precipitation Wind Pressure Humidity
    00:00 +17°C° 0 mm 6 mps 749 mmHg 84%
    01:00 +16°C° 0 mm 6 mps 749 mmHg 84%
    02:00 +15°C° 0 mm 6 mps 749 mmHg 83%
    03:00 +15°C° 0 mm 6 mps 749 mmHg 82%
    04:00 +14°C° 0 mm 7 mps 749 mmHg 79%
    05:00 +15°C° 0 mm 7 mps 749 mmHg 80%
    06:00 +16°C° 0 mm 6 mps 749 mmHg 80%
    07:00 +17°C° 0 mm 6 mps 749 mmHg 81%
    08:00 +20°C° 0 mm 6 mps 749 mmHg 76%
    09:00 +22°C° 0 mm 6 mps 749 mmHg 72%
    10:00 +23°C° 0 mm 6 mps 749 mmHg 66%
    11:00 +26°C° 0 mm 6 mps 749 mmHg 62%
    12:00 +27°C° 0 mm 6 mps 749 mmHg 58%
    13:00 +28°C° 0 mm 6 mps 749 mmHg 54%
    14:00 +28°C° 0 mm 6 mps 749 mmHg 54%
    15:00 +28°C° 0 mm 6 mps 749 mmHg 54%
    16:00 +29°C° 0 mm 6 mps 748 mmHg 53%
    17:00 +28°C° 0 mm 5 mps 749 mmHg 57%
    18:00 +27°C° 0 mm 5 mps 749 mmHg 61%
    19:00 +26°C° 0 mm 5 mps 749 mmHg 65%
    20:00 +25°C° 0 mm 5 mps 749 mmHg 69%
    21:00 +22°C° 0 mm 5 mps 749 mmHg 73%
    22:00 +21°C° 0 mm 5 mps 749 mmHg 77%
    23:00 +20°C° 0 mm 5 mps 749 mmHg 76%

    Tomorrow, 30 May, Saturday

    Time Temperature Precipitation Wind Pressure Humidity
    00:00 +19°C° 0 mm 5 mps 748 mmHg 75%
    01:00 +19°C° 0 mm 5 mps 748 mmHg 75%
    02:00 +17°C° 0 mm 5 mps 748 mmHg 74%
    03:00 +17°C° 0 mm 5 mps 748 mmHg 74%
    04:00 +16°C° 0 mm 6 mps 748 mmHg 73%
    05:00 +17°C° 0 mm 6 mps 748 mmHg 70%
    06:00 +19°C° 0 mm 6 mps 748 mmHg 67%
    07:00 +20°C° 0 mm 6 mps 748 mmHg 64%
    08:00 +21°C° 0 mm 6 mps 748 mmHg 61%
    09:00 +23°C° 0 mm 6 mps 748 mmHg 58%
    10:00 +24°C° 0 mm 6 mps 748 mmHg 55%
    11:00 +27°C° 0 mm 5 mps 747 mmHg 52%
    12:00 +28°C° 0 mm 5 mps 747 mmHg 49%
    13:00 +30°C° 0 mm 5 mps 747 mmHg 46%
    14:00 +30°C° 0 mm 5 mps 747 mmHg 43%
    15:00 +32°C° 0 mm 4 mps 746 mmHg 41%
    16:00 +33°C° 0 mm 3 mps 746 mmHg 38%
    17:00 +31°C° 0 mm 3 mps 746 mmHg 42%
    18:00 +30°C° 0 mm 3 mps 745 mmHg 46%
    19:00 +29°C° 0 mm 3 mps 745 mmHg 50%
    20:00 +28°C° 0 mm 3 mps 745 mmHg 53%
    21:00 +27°C° 0 mm 4 mps 745 mmHg 57%
    22:00 +25°C° 0 mm 4 mps 744 mmHg 60%
    23:00 +25°C° 0 mm 5 mps 744 mmHg 58%

    Day after tomorrow, 31 May, Sunday

    Time Temperature Precipitation Wind Pressure Humidity
    00:00 +25°C° 0 mm 5 mps 743 mmHg 56%
    01:00 +24°C° 0 mm 6 mps 743 mmHg 54%
    02:00 +23°C° 0 mm 6 mps 743 mmHg 53%
    03:00 +23°C° 0 mm 5 mps 742 mmHg 52%
    04:00 +22°C° 0 mm 5 mps 742 mmHg 51%
    05:00 +22°C° 0 mm 6 mps 742 mmHg 59%
    06:00 +22°C° 0 mm 6 mps 742 mmHg 67%
    07:00 +22°C° 0 mm 7 mps 742 mmHg 75%
    08:00 +24°C° 0 mm 7 mps 742 mmHg 71%
    09:00 +26°C° 0 mm 8 mps 743 mmHg 67%
    10:00 +27°C° 0 mm 8 mps 743 mmHg 63%
    11:00 +27°C° 0 mm 8 mps 743 mmHg 57%
    12:00 +28°C° 0 mm 8 mps 744 mmHg 52%
    13:00 +28°C° 0 mm 8 mps 744 mmHg 47%
    14:00 +28°C° 0 mm 8 mps 744 mmHg 44%
    15:00 +28°C° 0 mm 7 mps 744 mmHg 42%
    16:00 +28°C° 0 mm 7 mps 745 mmHg 40%
    17:00 +27°C° 0 mm 6 mps 745 mmHg 44%
    18:00 +26°C° 0 mm 5 mps 745 mmHg 48%
    19:00 +25°C° 0 mm 4 mps 745 mmHg 52%
    20:00 +23°C° 0 mm 4 mps 745 mmHg 53%
    21:00 +22°C° 0 mm 4 mps 745 mmHg 54%
    22:00 +21°C° 0 mm 5 mps 745 mmHg 55%
    23:00 +20°C° 0 mm 4 mps 745 mmHg 57%

    1 June, Monday

    Time Temperature Precipitation Wind Pressure Humidity
    00:00 +19°C° 0 mm 4 mps 745 mmHg 60%
    01:00 +18°C° 0 mm 3 mps 745 mmHg 62%
    02:00 +17°C° 0 mm 3 mps 745 mmHg 65%
    03:00 +17°C° 0 mm 3 mps 745 mmHg 69%
    04:00 +16°C° 0 mm 2 mps 746 mmHg 72%
    05:00 +17°C° 0 mm 2 mps 746 mmHg 70%
    06:00 +18°C° 0 mm 3 mps 746 mmHg 67%
    07:00 +19°C° 0 mm 3 mps 746 mmHg 65%
    08:00 +21°C° 0 mm 3 mps 746 mmHg 59%
    09:00 +22°C° 0 mm 3 mps 747 mmHg 53%
    10:00 +24°C° 0 mm 3 mps 747 mmHg 47%
    11:00 +25°C° 0 mm 3 mps 747 mmHg 43%
    12:00 +26°C° 0 mm 4 mps 747 mmHg 39%
    13:00 +26°C° 0 mm 4 mps 747 mmHg 36%
    14:00 +27°C° 0 mm 4 mps 746 mmHg 35%
    15:00 +27°C° 0 mm 4 mps 746 mmHg 34%
    16:00 +27°C° 0 mm 3 mps 746 mmHg 34%
    17:00 +26°C° 0 mm 3 mps 746 mmHg 38%
    18:00 +26°C° 0 mm 2 mps 746 mmHg 43%
    19:00 +25°C° 0 mm 1 mps 746 mmHg 47%
    20:00 +23°C° 0 mm 1 mps 746 mmHg 50%
    21:00 +22°C° 0 mm 1 mps 746 mmHg 53%
    22:00 +20°C° 0 mm 1 mps 746 mmHg 56%
    23:00 +19°C° 0 mm 1 mps 746 mmHg 57%

    2 June, Tuesday

    Time Temperature Precipitation Wind Pressure Humidity
    00:00 +17°C° 0 mm 0 mps 746 mmHg 57%
    01:00 +16°C° 0 mm 0 mps 746 mmHg 58%
    02:00 +18°C° 0 mm 1 mps 746 mmHg 58%
    03:00 +18°C° 0 mm 1 mps 746 mmHg 59%
    04:00 +18°C° 0 mm 1 mps 746 mmHg 59%
    05:00 +19°C° 0 mm 1 mps 746 mmHg 57%
    06:00 +20°C° 0 mm 2 mps 746 mmHg 54%
    07:00 +21°C° 0 mm 2 mps 747 mmHg 52%
    08:00 +24°C° 0 mm 2 mps 746 mmHg 48%
    09:00 +25°C° 0 mm 3 mps 746 mmHg 43%
    10:00 +27°C° 0 mm 3 mps 746 mmHg 38%
    11:00 +27°C° 0 mm 3 mps 746 mmHg 35%
    12:00 +28°C° 0 mm 3 mps 746 mmHg 33%
    13:00 +29°C° 0 mm 3 mps 746 mmHg 31%
    14:00 +29°C° 0 mm 3 mps 746 mmHg 31%
    15:00 +29°C° 0 mm 4 mps 745 mmHg 31%
    16:00 +30°C° 0 mm 4 mps 745 mmHg 31%
    17:00 +29°C° 0 mm 4 mps 745 mmHg 36%
    18:00 +27°C° 0 mm 4 mps 744 mmHg 41%
    19:00 +26°C° 0 mm 4 mps 744 mmHg 45%
    20:00 +25°C° 0 mm 4 mps 744 mmHg 47%
    21:00 +23°C° 0 mm 5 mps 743 mmHg 49%
    22:00 +22°C° 0 mm 5 mps 743 mmHg 51%
    23:00 +21°C° 1 mm 5 mps 743 mmHg 57%

    3 June, Wednesday

    Time Temperature Precipitation Wind Pressure Humidity
    00:00 +20°C° 1 mm 5 mps 742 mmHg 63%
    01:00 +19°C° 1 mm 4 mps 742 mmHg 69%
    02:00 +19°C° 1.9 mm 4 mps 741 mmHg 72%
    03:00 +18°C° 1.9 mm 4 mps 741 mmHg 74%
    04:00 +18°C° 1.9 mm 4 mps 741 mmHg 77%
    05:00 +19°C° 1.7 mm 4 mps 741 mmHg 77%
    06:00 +19°C° 1.7 mm 4 mps 741 mmHg 76%
    07:00 +20°C° 1.7 mm 5 mps 741 mmHg 76%
    08:00 +22°C° 0 mm 4 mps 741 mmHg 70%
    09:00 +25°C° 0 mm 3 mps 741 mmHg 63%
    10:00 +27°C° 0 mm 2 mps 741 mmHg 56%
    11:00 +28°C° 0 mm 3 mps 741 mmHg 55%
    12:00 +28°C° 0 mm 4 mps 742 mmHg 54%
    13:00 +29°C° 0 mm 5 mps 742 mmHg 53%
    14:00 +29°C° 0 mm 5 mps 742 mmHg 53%
    15:00 +29°C° 0 mm 6 mps 742 mmHg 53%
    16:00 +29°C° 0 mm 6 mps 743 mmHg 53%
    17:00 +28°C° 0 mm 5 mps 743 mmHg 56%
    18:00 +27°C° 0 mm 5 mps 744 mmHg 59%
    19:00 +26°C° 0 mm 5 mps 744 mmHg 62%
    20:00 +23°C° 0 mm 4 mps 744 mmHg 66%
    21:00 +21°C° 0 mm 4 mps 745 mmHg 70%
    22:00 +20°C° 0 mm 3 mps 745 mmHg 74%
    23:00 +19°C° 0 mm 3 mps 745 mmHg 77%
    Show more